Overview Statistics Trail Chart Weather Telemetry Raw packets
 

This is the latest recevied weather packets stored in our database for station/object K1RFS. If no packets are shown the sender has not sent any weather packets the latest 10 day(s).

<< 64 65 66 67 68 69 70 >>
Time Temp. Humidity Pressure Rain* Wind** Luminosity Snow
1788237872 15.56° C 76% 1005.5 hPa 0 mm - 0 W/m² -
1788237568 15.56° C 75% 1005.3 hPa 0 mm - 0 W/m² -
1788237264 15.56° C 74% 1005.4 hPa 0 mm - 0 W/m² -
1788236959 15.56° C 75% 1005.3 hPa 0 mm - 0 W/m² -
1788236659 15.56° C 74% 1005.4 hPa 0 mm - 0 W/m² -
1788236354 15.56° C 74% 1005.4 hPa 0 mm - 0 W/m² -
1788236054 15.56° C 73% 1005.5 hPa 0 mm - 0 W/m² -
1788235758 15.56° C 74% 1005.2 hPa 0 mm - 0 W/m² -
1788235448 15.56° C 74% 1005.3 hPa 0 mm - 0 W/m² -
1788235147 15.56° C 74% 1005.2 hPa 0 mm - 0 W/m² -
1788234846 15.56° C 74% 1005.2 hPa 0 mm - 0 W/m² -
1788234545 15.56° C 73% 1005.3 hPa 0 mm - 0 W/m² -
1788234240 16.11° C 73% 1005.3 hPa 0 mm - 0 W/m² -
1788233935 16.11° C 71% 1005.3 hPa 0 mm - 0 W/m² -
1788233634 15.56° C 73% 1005.4 hPa 0 mm - 0 W/m² -
1788233333 15.56° C 76% 1005.4 hPa 0 mm - 0 W/m² -
1788233032 15.56° C 80% 1005.3 hPa 0 mm - 0 W/m² -
1788232728 16.11° C 79% 1005.3 hPa 0 mm - 0 W/m² -
1788232423 16.11° C 77% 1005.3 hPa 0 mm - 0 W/m² -
1788232123 16.11° C 77% 1005.2 hPa 0 mm - 0 W/m² -
1788231818 15.56° C 78% 1004.9 hPa 0 mm - 0 W/m² -
1788231518 15.56° C 79% 1005 hPa 0 mm - 0 W/m² -
1788231213 15.56° C 78% 1004.9 hPa 0 mm - 0 W/m² -
1788230913 15.56° C 78% 1004.9 hPa 0 mm - 0 W/m² -
1788230612 15.56° C 77% 1004.8 hPa 0 mm - 0 W/m² -

* Rain latest hour (hover to see other rain measurements)
** Current wind speed in m/s (hover to see current wind gust speed)